Hourly Data Report for October 15, 2017

VICTORIA UNIVERSITY CS
BRITISH COLUMBIA

48°27'25.200" N
123°18'16.600" W
60.10 m
1018598
71783
WYJ

Download Data

Hourly Data (October 2017)
Hourly Data Report for October 15, 2017
TIME
LST
Temp Definition
°C
Dew Point Definition
°C
Rel Hum Definition
%
Precip. Amount Definition
mm

Wind Dir Definition
10's deg

Wind Spd Definition
km/h
Visibility Definition
km
Stn Press Definition
kPa
Hmdx Definition


Wind Chill Definition


Weather Definition


00:00 9.4 7.2 87 0.0 35 6   102.31     LegendNANA
01:00 9.2 6.9 85 0.0 34 6   102.31     LegendNANA
02:00 9.1 7.1 87 0.0 35 6   102.26     LegendNANA
03:00 8.4 6.6 88 0.0 35 6   102.22     LegendNANA
04:00 8.8 6.5 86 0.0 36 6   102.16     LegendNANA
05:00 8.2 6.2 87 0.0 35 6   102.12     LegendNANA
06:00 6.9 5.6 91 0.0 32 5   102.08     LegendNANA
07:00 7.5 6.3 92 0.0 34 7   102.05     LegendNANA
08:00 9.2 7.0 86 0.0 35 6   102.04     LegendNANA
09:00 10.9 6.8 76 0.0 36 8   102.01     LegendNANA
10:00 11.9 6.7 70 0.0 1 8   101.97     LegendNANA
11:00 13.6 6.8 64 0.0 36 6   101.93     LegendNANA
12:00 13.9 4.8 54 0.0 5 6   101.86     LegendNANA
13:00 14.5 4.5 51 0.0 2 5   101.79     LegendNANA
14:00 15.3 6.3 55 0.0 13 2   101.75     LegendNANA
15:00 13.9 6.6 61 0.0 8 4   101.73     LegendNANA
16:00 13.1 4.3 55 0.0 20 6   101.72     LegendNANA
17:00 11.9 5.7 66 0.0 21 2   101.69     LegendNANA
18:00 9.0 6.3 83 0.0 18 2   101.66     LegendNANA
19:00 9.9 7.4 85 0.0 25 3   101.64     LegendNANA
20:00 10.2 8.0 86 0.0 25 5   101.60     LegendNANA
21:00 10.2 7.9 86 0.0 25 4   101.59     LegendNANA
22:00 10.1 7.9 86 0.0 10 2   101.61     LegendNANA
23:00 9.1 7.7 91 0.0 22 2   101.58     LegendNANA

Notes on Data Quality.

Legend

  • E = Estimated
  • M = Missing
  • NA = Not Available*
  • [empty] = Indicates an unobserved value
Date modified: